Probability
0 0 0 0 0 0 0 0 0 0 0 0 0 0 0 0 0 0 0 0 0 0 0 0 0 0 0 0 0 0 0 0 0 0 0 0 0 0 0 0 0 0 0 0
0 0 0 0 0 0 0 0 0 0 0 0 0 0 0 0 0 0 0 0 0 0 0 0 0 0 0 0 0 0 0 0 0 0 0 0 0 0 0 0 0 0 0 0
0 0 0 0 0 0 0 0 0 0 0 0 0 0 0 0 0 0 0 0 0 0 0 0 0 0 0 0 0 0 0 0 0 0 0 0 0 0 0 0 0 0 0 0
0 0 0 0 0 0 0 0 0 0 0 0 0 0 0 0 0 0 0 0 0 0 0 0 0 0 0 0 0 0 0 0 0 0 0 0 0 0 0 0 0 0 0 0
0 0 0 0 0 0 0 0 0 0 0 0 0 0 0 0 0 0 0 0 0 0 0 0 0 0 0 0 0 0 0 0 0 0 0 0 0 0 0 0 0 0 0 0
0 0 0 0 0 0 0 0 0 0 0 0 0 0 0 0 0 0 0 0 0 0 0 0 0 0 0 0 0 0 0 0 0 0 0 0 0 0 0 0 0 0 0 0
0 0 0 0 0 0 0 0 0 0 0 0 0 0 0 0 0 0 0 0 0 0 0 0 0 0 0 0 0 0 0 0 0 0 0 0 0 0 0 0 0 0 0 0
0 0 0 0 0 0 0 0 0 0 0 0 0 0 0 0 0 0 0 0 0 0 0 0 0 0 0 0 0 0 0 0 0 0 0 0 0 0 0 0 0 0 0 0
0 0 0 0 0 0 0 0 0 0 0 0 0 0 0 0 0 0 0 0 0 0 0 0 0 0 0 0 0 0 0 0 0 0 0 0 0 0 0 0 0 0 0 0
0 0 0 0 0 0 0 0 0 0 0 0 0 0 0 0 0 0 0 0 0 0 0 0 0 0 0 0 0 0 0 0 0 0 0 0 0 0 0 0 0 0 0 0
0 0 0 0 0 0 0 0 0 0 0 0 0 0 0 0 0 0 0 0 0 0 0 0 0 0 0 0 0 0 0 0 0 0 0 0 0 0 0 0 0 0 0 0
0 0 0 0 0 0 0 0 0 0 0 0 0 0 0 0 0 0 0 0 0 0 0 0 0 0 0 0 0 0 0 0 0 0 0 0 0 0 0 0 0 0 0 0
0 0 0 0 0 0 0 0 0 0 0 0 0 0 0 0 0 0 0 0 0 0 0 0 0 0 0 0 0 0 0 0 0 0 0 0 0 0 0 0 0 0 0 0
0 0 0 0 0 0 0 0 0 0 0 0 0 0 0 0 0 0 0 0 0 0 0 0 0 0 0 0 0 0 0 0 0 0 0 0 0 0 0 0 0 0 0 0
0 0 0 0 0 0 0 0 0 0 0 0 0 0 0 0 0 0 0 0 0 0 0 0 0 0 0 0 0 0 0 0 0 0 0 0 0 0 0 0 0 0 0 0
0 0 0 0 0 0 0 0 0 0 0 0 0 0 0 0 0 0 0 0 0 0 0 0 0 0 0 0 0 0 0 0 0 0 0 0 0 0 0 0 0 0 0 0
0 0 0 0 0 0 0 0 0 0 0 0 0 0 0 0 0 0 0 0 0 0 0 0 0 0 0 0 0 0 0 0 0 0 0 0 0 0 0 0 0 0 0 0
0 0 0 0 0 0 0 0 0 0 0 0 0 0 0 0 0 0 0 0 0 0 0 0 0 0 0 0 0 0 0 0 0 0 0 0 0 0 0 0 0 0 0 0
0 0 0 0 0 0 0 0 0 0 0 0 0 0 0 0 0 0 0 0 0 0 0 0 0 0 0 0 0 0 0 0 0 0 0 0 0 0 0 0 0 0 0 0
0 0 0 0 0 0 0 0 0 0 0 0 0 0 0 0 0 0 0 0 0 0 0 0 0 0 0 0 0 0 0 0 0 0 0 0 0 0 0 0 0 0 0 0
0 0 0 0 0 0 0 0 0 0 0 0 0 0 0 0 0 0 0 0 0 0 0 0 0 0 0 0 0 0 0 0 0 0 0 0 0 0 0 0 0 0 0 0
0 0 0 0 0 0 0 0 0 0 0 0 0 0 0 0 0 0 0 0 0 0 0 0 0 0 0 0 0 0 0 0 0 0 0 0 0 0 0 0 0 0 0 0
0 0 0 0 0 0 0 0 0 0 0 0 0 0 0 0 0 0 0 0 0 0 0 0 0 0 0 0 0 0 0 0 0 0 0 0 0 0 0 0 0 0 0 0
0 0 0 0 0 0 0 0 0 0 0 0 0 0 0 0 0 0 0 0 0 0 0 0 0 0 0 0 0 0 0 0 0 0 0 0 0 0 0 0 0 0 0 0
0 0 0 0 0 0 0 0 0 0 0 0 0 0 0 0 0 0 0 0 0 0 0 0 0 0 0 0 0 0 0 0 0 0 0 0 0 0 0 0 0 0 0 0
0 0 0 0 0 0 0 0 0 0 0 0 0 0 0 0 0 0 0 0 0 0 0 0 0 0 0 0 0 0 0 0 0 0 0 0 0 0 0 0 0 0 0 0
Height
5886 5888 5888 5888 5887 5886 5884 5882 5880 5878 5875 5873 5870 5866 5863 5859 5856 5853 5850 5846 5843 5839 5835 5830 5826 5822 5818 5814 5811 5808 5805 5803 5801 5799 5798 5798 5798 5798 5799 5801 5803 5805 5808 5811
5884 5885 5885 5885 5884 5883 5881 5879 5877 5875 5872 5869 5866 5864 5860 5857 5854 5851 5848 5844 5840 5836 5832 5828 5824 5819 5815 5811 5807 5804 5801 5798 5795 5793 5791 5791 5790 5790 5790 5791 5793 5795 5797 5800
5881 5882 5882 5882 5881 5880 5879 5877 5874 5872 5869 5866 5864 5862 5859 5856 5853 5850 5846 5843 5839 5835 5831 5827 5822 5817 5813 5808 5804 5800 5797 5794 5791 5788 5786 5785 5784 5783 5783 5783 5784 5786 5788 5790
5878 5879 5879 5879 5879 5877 5876 5874 5872 5869 5867 5865 5863 5861 5858 5855 5852 5849 5846 5842 5838 5834 5830 5825 5821 5816 5811 5807 5802 5798 5794 5791 5788 5785 5782 5780 5778 5777 5776 5776 5776 5777 5779 5781
5875 5876 5877 5877 5876 5875 5873 5871 5869 5867 5865 5863 5861 5860 5858 5855 5852 5849 5845 5841 5838 5834 5829 5825 5820 5815 5810 5806 5801 5797 5793 5789 5785 5782 5779 5776 5774 5772 5771 5770 5769 5769 5771 5772
5873 5874 5875 5874 5874 5873 5871 5870 5868 5866 5864 5863 5861 5859 5858 5854 5851 5848 5845 5841 5837 5834 5829 5824 5820 5815 5810 5806 5801 5796 5792 5788 5783 5780 5776 5773 5771 5768 5766 5764 5763 5763 5763 5764
5872 5873 5873 5873 5872 5872 5870 5869 5868 5865 5864 5863 5860 5858 5858 5854 5851 5848 5845 5841 5838 5834 5829 5825 5820 5815 5810 5806 5801 5796 5791 5787 5783 5779 5775 5771 5768 5765 5763 5760 5759 5758 5757 5758
5870 5872 5872 5872 5871 5870 5869 5869 5868 5866 5864 5863 5861 5859 5858 5855 5852 5848 5845 5842 5838 5834 5830 5825 5820 5816 5811 5806 5801 5796 5792 5787 5783 5778 5774 5771 5767 5764 5761 5758 5755 5753 5752 5752
5869 5871 5871 5871 5870 5870 5869 5868 5868 5866 5865 5863 5862 5860 5858 5855 5852 5849 5846 5843 5839 5835 5830 5826 5821 5817 5812 5807 5802 5797 5793 5788 5783 5779 5775 5771 5767 5763 5759 5756 5753 5750 5749 5748
5869 5870 5870 5871 5871 5870 5870 5869 5868 5867 5865 5864 5863 5861 5859 5856 5853 5850 5847 5843 5840 5836 5831 5827 5822 5818 5813 5809 5804 5799 5794 5789 5785 5780 5776 5771 5767 5763 5759 5755 5752 5749 5747 5746
5869 5870 5871 5871 5871 5871 5871 5870 5869 5868 5866 5865 5863 5864 5860 5857 5854 5851 5848 5844 5841 5836 5832 5828 5824 5819 5815 5810 5805 5800 5795 5791 5786 5781 5777 5772 5767 5763 5759 5755 5752 5749 5746 5743
5869 5870 5871 5871 5871 5871 5871 5870 5870 5869 5868 5866 5864 5866 5860 5858 5855 5852 5849 5845 5842 5838 5833 5829 5825 5821 5816 5812 5807 5802 5797 5792 5787 5783 5778 5773 5768 5764 5760 5756 5752 5748 5745 5742
5869 5871 5871 5872 5874 5873 5871 5871 5870 5870 5868 5866 5865 5866 5861 5858 5855 5853 5850 5846 5843 5839 5835 5831 5826 5822 5818 5814 5809 5804 5799 5794 5789 5784 5779 5774 5769 5765 5760 5756 5752 5748 5744 5741
5870 5871 5873 5873 5873 5872 5872 5872 5871 5870 5869 5867 5866 5864 5862 5859 5856 5854 5850 5847 5844 5840 5836 5832 5828 5824 5820 5815 5811 5806 5801 5796 5791 5786 5781 5776 5771 5766 5761 5757 5752 5748 5744 5740
5870 5872 5872 5873 5873 5873 5872 5872 5871 5870 5869 5868 5867 5865 5863 5860 5857 5855 5851 5848 5845 5841 5837 5833 5829 5825 5821 5817 5813 5808 5803 5798 5793 5788 5783 5778 5773 5767 5762 5758 5753 5748 5744 5739
5871 5872 5873 5873 5873 5873 5873 5872 5871 5870 5869 5868 5867 5865 5863 5861 5858 5855 5852 5849 5846 5842 5839 5835 5831 5827 5823 5819 5814 5810 5805 5800 5795 5790 5785 5780 5774 5769 5764 5758 5753 5748 5743 5739
5871 5872 5873 5873 5873 5873 5873 5872 5871 5870 5869 5868 5867 5866 5863 5861 5858 5856 5853 5850 5847 5843 5840 5836 5832 5828 5824 5820 5816 5812 5807 5802 5797 5792 5787 5781 5776 5770 5765 5759 5754 5749 5743 5738
5871 5871 5872 5872 5873 5873 5875 5872 5871 5870 5869 5868 5866 5865 5863 5861 5858 5856 5853 5851 5847 5844 5841 5837 5833 5829 5825 5821 5817 5813 5808 5804 5799 5794 5788 5783 5777 5771 5766 5760 5754 5749 5744 5738
5870 5871 5871 5871 5871 5872 5872 5871 5870 5869 5868 5867 5866 5864 5862 5860 5858 5856 5853 5851 5848 5845 5841 5838 5834 5830 5826 5822 5818 5814 5810 5805 5800 5795 5790 5785 5779 5773 5767 5761 5756 5750 5744 5738
5868 5869 5870 5869 5869 5870 5871 5869 5868 5869 5867 5866 5864 5863 5861 5859 5857 5856 5853 5850 5847 5844 5841 5838 5834 5831 5827 5823 5819 5815 5811 5806 5802 5797 5792 5786 5781 5775 5769 5763 5757 5751 5745 5739
5866 5866 5867 5867 5867 5867 5868 5867 5867 5867 5866 5864 5862 5860 5859 5857 5856 5854 5851 5848 5846 5843 5840 5837 5834 5830 5827 5823 5819 5815 5811 5807 5802 5798 5793 5787 5782 5777 5771 5765 5759 5753 5747 5741
5863 5864 5864 5864 5864 5866 5864 5864 5864 5863 5861 5860 5859 5857 5856 5854 5852 5851 5848 5846 5844 5841 5838 5835 5832 5829 5826 5823 5819 5815 5811 5807 5803 5798 5793 5789 5783 5778 5773 5767 5761 5755 5749 5743
5860 5861 5861 5862 5863 5861 5860 5860 5860 5859 5857 5856 5855 5854 5852 5851 5849 5847 5845 5843 5841 5838 5836 5833 5830 5827 5824 5821 5818 5814 5811 5807 5803 5798 5794 5789 5784 5779 5774 5769 5764 5758 5752 5746
5855 5856 5856 5856 5856 5856 5856 5855 5855 5854 5853 5852 5851 5849 5848 5846 5845 5843 5841 5839 5837 5835 5832 5830 5827 5824 5822 5818 5815 5812 5809 5805 5802 5798 5794 5790 5785 5780 5776 5771 5765 5760 5755 5749
5850 5850 5850 5851 5851 5851 5850 5850 5849 5848 5848 5847 5846 5844 5843 5842 5840 5838 5836 5834 5832 5830 5828 5826 5823 5821 5818 5815 5812 5809 5806 5803 5800 5796 5793 5789 5785 5781 5776 5772 5767 5762 5757 5752
5844 5845 5845 5845 5845 5845 5845 5844 5843 5843 5842 5841 5840 5839 5837 5836 5835 5833 5831 5829 5827 5825 5823 5821 5818 5816 5814 5811 5808 5806 5803 5800 5797 5794 5791 5787 5784 5780 5776 5772 5768 5763 5759 5754
Wind_Speed
21 20 19 19 20 20 21 22 22 22 21 21 21 20 20 20 20 20 21 22 23 23 23 23 22 22 22 21 21 21 21 22 24 25 26 27 28 30 32 34 36 38 39 41
20 19 18 18 18 19 20 20 20 20 19 18 18 17 17 17 18 20 21 21 21 20 20 21 21 21 20 20 19 19 19 20 20 21 22 23 25 26 27 29 32 34 37 39
18 16 16 16 16 17 17 17 17 17 16 16 15 14 14 16 17 18 19 18 18 18 19 20 20 20 20 20 19 19 18 18 17 17 18 19 21 23 25 26 28 31 33 36
16 15 14 14 14 14 13 14 15 14 14 13 13 11 13 14 15 16 16 16 17 18 19 20 20 21 21 20 19 19 18 17 17 16 16 16 17 19 21 23 25 27 29 31
13 12 11 11 10 11 12 13 13 12 11 10 10 10 11 13 13 14 15 16 17 18 19 20 20 20 20 21 20 20 19 18 17 16 15 15 16 17 18 20 22 24 26 28
11 10 8 7 7 9 10 11 10 9 8 8 9 10 11 12 12 14 15 16 17 18 19 20 21 21 21 21 21 21 20 18 17 16 15 14 15 15 16 17 18 21 23 26
9 7 5 4 5 7 8 8 8 7 8 9 10 10 11 12 13 14 15 17 18 19 20 21 21 21 21 22 22 21 20 19 19 18 16 15 15 14 14 13 14 16 18 21
7 5 2 2 4 5 6 6 7 7 8 9 10 11 12 13 14 15 16 17 18 18 20 21 21 21 22 22 23 22 21 20 19 18 17 17 16 14 13 13 13 13 14 16
6 3 2 0 2 3 4 5 6 7 8 9 10 11 12 13 14 16 16 17 18 19 20 21 21 21 22 23 23 22 21 21 20 20 19 18 17 16 14 13 12 11 11 12
5 4 2 2 2 3 4 5 5 6 7 8 10 11 12 13 14 16 16 17 18 18 19 20 21 21 22 23 23 23 22 21 21 21 20 20 19 17 16 14 13 12 10 10
6 4 3 3 3 3 3 4 5 6 7 8 9 10 11 13 14 15 16 17 18 18 18 19 20 21 22 23 23 22 22 22 21 21 21 21 20 19 17 16 15 13 12 10
6 5 4 4 4 4 4 4 5 6 7 8 9 10 11 12 14 15 16 17 18 18 18 19 20 21 22 23 23 23 23 23 22 22 22 22 21 19 18 17 16 15 14 12
6 5 5 4 4 4 4 4 4 5 7 8 9 10 11 12 13 15 16 16 17 18 19 19 19 20 21 22 23 24 24 23 23 23 23 23 22 20 19 19 18 17 15 13
6 5 4 4 3 3 3 3 4 5 6 8 9 10 11 12 13 14 15 16 17 18 18 19 19 20 21 22 23 24 24 25 25 24 24 24 23 22 21 20 19 18 17 16
6 4 3 3 2 2 2 3 4 5 6 7 8 9 10 11 12 14 15 16 16 17 18 18 19 20 20 21 22 23 24 25 25 25 25 25 24 24 23 22 21 20 19 18
5 4 3 2 1 0 1 3 4 5 6 7 8 9 10 11 12 13 15 16 16 17 17 18 19 19 20 21 22 22 23 24 25 26 26 26 25 25 24 23 23 22 21 20
4 4 3 2 2 1 2 3 4 5 6 6 7 8 9 10 11 12 14 15 17 17 18 18 19 19 20 21 21 22 23 24 25 26 26 26 26 25 25 25 24 24 23 22
4 4 4 4 4 3 3 3 4 5 6 6 7 8 9 10 10 11 13 14 16 17 17 18 18 19 20 20 21 22 23 24 25 26 26 26 26 26 26 26 26 25 25 24
6 6 6 6 6 5 5 5 6 6 6 7 8 9 9 10 11 11 13 14 15 16 17 17 18 18 19 20 21 21 22 23 24 25 26 26 27 27 27 27 27 27 26 25
7 7 8 8 8 8 8 8 8 8 8 9 9 10 10 11 12 12 13 14 14 15 16 17 17 18 19 19 20 21 22 22 24 25 25 26 27 27 28 28 28 28 28 27
10 10 10 10 11 11 10 10 10 10 11 11 12 12 12 12 13 13 14 15 15 16 16 17 18 18 18 19 20 21 21 22 23 24 25 26 26 27 28 28 28 29 29 28
13 13 13 13 13 13 13 13 13 14 14 15 15 15 15 15 15 16 16 16 17 17 17 18 18 19 19 19 20 20 21 22 23 23 24 25 26 26 27 28 28 29 29 29
16 15 16 16 16 15 15 16 16 16 17 18 18 18 18 18 18 18 18 18 19 19 19 19 19 19 20 20 20 21 21 22 22 23 23 24 25 25 26 26 27 28 29 29
18 18 18 18 18 18 18 18 18 19 20 20 20 20 20 20 21 21 21 21 21 21 21 21 21 21 21 21 21 21 22 22 22 23 23 24 24 24 25 25 26 26 27 28
21 21 21 21 20 20 20 21 21 22 22 23 23 22 22 23 23 23 24 24 24 24 23 23 23 23 23 23 23 23 22 22 22 23 23 23 23 23 24 24 24 24 25 26
23 23 22 22 22 22 22 23 24 24 24 24 24 24 24 25 25 25 26 26 26 26 26 26 25 25 25 25 25 24 24 23 23 23 23 23 23 23 23 23 23 23 23 23
Wind_Direction
247 255 265 274 282 290 297 303 307 312 315 317 320 321 323 325 325 326 327 328 328 328 328 327 326 323 321 317 311 306 301 297 290 282 277 273 270 267 262 257 252 249 247 246
246 255 265 274 283 293 300 304 309 313 317 321 325 327 328 328 329 331 332 333 334 337 338 338 337 335 333 329 323 318 313 309 301 291 284 278 274 270 266 260 255 251 248 246
245 254 263 274 286 294 299 306 313 319 323 326 327 330 330 331 333 336 338 340 342 343 343 344 345 345 342 339 336 330 324 321 315 305 296 288 281 276 271 265 259 254 250 247
243 253 265 278 288 297 306 314 320 324 327 330 333 335 333 336 339 344 346 349 350 350 351 351 351 351 351 349 345 340 335 329 325 319 310 300 292 284 278 271 263 256 251 248
240 252 265 280 293 305 315 322 325 328 334 340 344 347 346 347 349 353 357 360 0 359 359 358 357 357 357 357 355 352 348 343 336 329 322 312 303 295 286 278 269 260 254 249
235 248 265 283 302 315 322 328 333 340 350 359 2 5 4 1 3 5 6 5 3 3 2 2 1 1 0 359 359 358 357 354 349 343 336 329 319 309 299 288 278 268 259 252
229 239 257 289 315 325 332 340 352 7 15 19 18 19 14 12 12 11 10 7 5 5 6 6 6 6 5 4 3 2 2 1 358 355 351 344 337 330 318 305 293 280 266 258
213 216 241 303 331 342 354 6 17 26 30 28 27 24 19 18 16 12 10 7 6 6 7 8 9 10 9 8 7 7 7 6 5 4 2 358 352 346 337 325 311 293 277 265
195 189 185 17 14 19 26 29 34 39 39 36 30 26 23 22 18 14 11 9 7 8 9 10 12 12 12 11 11 11 10 10 10 9 7 4 1 358 352 345 337 315 288 274
173 165 153 107 78 69 56 47 46 45 42 38 34 30 26 21 17 15 13 10 9 9 9 11 13 13 13 13 13 13 13 13 12 12 11 8 5 3 0 356 350 343 321 296
168 165 152 131 113 97 76 58 51 47 42 37 33 27 21 18 15 14 12 11 10 10 11 13 14 15 15 15 15 15 15 14 12 11 9 9 8 7 6 3 359 351 339 321
164 159 148 131 113 97 78 59 46 39 33 29 26 24 18 15 14 13 11 10 11 13 15 16 17 17 17 17 18 18 18 16 15 13 11 10 10 9 8 5 2 358 352 340
162 157 149 132 113 95 73 53 42 34 28 22 21 21 16 14 13 11 11 11 13 15 17 18 18 18 19 20 20 21 20 19 18 16 14 13 12 11 9 7 5 1 357 350
162 158 149 132 116 96 66 41 31 25 20 19 17 16 14 12 9 10 12 13 14 16 17 19 20 20 20 20 21 21 21 20 19 18 17 15 14 12 10 8 5 2 359 354
168 164 158 145 128 94 52 23 14 10 8 9 10 12 13 12 12 13 14 14 14 14 16 18 19 19 20 20 20 21 20 19 19 19 18 16 14 13 12 9 6 3 360 356
176 180 183 182 169 81 9 1 0 358 357 1 6 10 11 13 14 14 15 14 13 13 13 14 15 16 17 18 19 19 18 18 17 17 17 16 16 15 13 11 8 6 2 359
190 203 214 224 238 282 331 343 345 349 351 354 358 3 3 5 8 10 11 12 12 11 11 12 13 14 15 15 16 16 16 15 15 15 15 15 15 14 13 12 10 8 5 2
211 225 236 246 257 273 294 309 321 331 337 342 348 351 353 356 359 2 3 4 6 7 8 9 11 11 12 12 13 13 13 13 14 14 14 14 14 13 12 11 10 9 7 4
232 242 251 257 264 270 280 289 299 308 317 325 332 338 342 344 346 349 351 353 356 358 0 2 4 5 6 7 8 9 10 10 11 12 12 12 13 12 12 12 11 10 8 7
244 252 260 265 268 271 275 281 288 295 301 309 315 320 325 329 332 336 338 340 343 347 351 353 355 357 359 360 1 2 4 5 7 8 9 10 11 11 11 12 11 11 10 9
254 260 264 268 271 273 276 279 283 286 294 298 302 306 311 315 320 323 326 328 331 334 337 341 344 347 349 351 353 355 357 359 1 3 5 6 8 9 10 10 11 12 11 11
261 264 267 270 273 276 279 279 281 284 288 292 296 299 303 306 310 313 316 319 322 325 327 330 333 336 339 342 344 346 349 352 354 357 359 2 3 5 7 9 10 12 12 12
264 267 269 272 274 277 278 280 282 284 286 288 291 294 297 300 303 306 309 312 314 317 320 323 325 327 330 332 334 337 341 344 347 350 353 356 358 0 3 5 8 10 11 12
266 268 270 272 274 275 277 278 279 280 282 284 287 289 292 295 297 300 302 305 308 310 313 315 318 320 322 324 326 329 332 336 339 342 345 348 351 354 357 360 2 5 8 11
266 268 270 271 273 274 275 276 277 279 280 282 284 287 290 293 295 297 300 302 303 305 307 309 311 313 315 317 319 321 324 327 330 333 337 340 343 347 349 353 356 359 3 7
267 268 270 271 272 273 274 276 278 279 281 284 286 288 291 293 295 297 298 300 301 303 304 305 307 308 309 311 312 314 317 319 321 324 327 331 335 338 342 345 349 353 356 1